EW4927 Weather Reports


time (UTC)temp
C
wind
direction
speed
KPH
gust
KPH
rain 1hr
cm
rain 24hr
cm
rain mn
cm
humidity
%
barometer
mb
20260505214643 8 0 0.0 0.0 0.00 0.00 0.00 81 1014.7
20260505213641 9 0 0.0 0.0 0.00 0.00 0.00 80 1014.7
20260505211640 9 0 0.0 0.0 0.00 0.00 0.00 80 1014.7
20260505205641 9 0 0.0 0.0 0.00 0.00 0.00 81 1014.7
20260505204639 9 0 0.0 0.0 0.00 0.00 0.00 82 1014.7
20260505203638 9 0 0.0 0.0 0.00 0.00 0.00 81 1014.6
20260505202637 9 0 0.0 0.0 0.00 0.00 0.00 81 1014.6
20260505201638 9 0 0.0 0.0 0.00 0.00 0.00 81 1014.6
20260505200636 10 0 0.0 0.0 0.00 0.00 0.00 80 1014.6
20260505195637 10 0 0.0 0.0 0.00 0.00 0.00 79 1014.5
20260505194635 10 0 0.0 0.0 0.00 0.00 0.00 79 1014.5
20260505193637 10 0 0.0 0.0 0.00 0.00 0.00 79 1014.4
20260505192634 10 0 0.0 0.0 0.00 0.00 0.00 78 1014.4
20260505190633 10 0 0.0 0.0 0.00 0.00 0.00 78 1014.3
20260505185634 10 0 0.0 0.0 0.00 0.00 0.00 78 1014.3
20260505184631 10 0 0.0 0.0 0.00 0.00 0.00 78 1014.2
20260505183631 10 0 0.0 0.0 0.00 0.00 0.00 78 1014.3
20260505182630 10 0 0.0 0.0 0.00 0.00 0.00 78 1014.3
20260505181629 10 0 0.0 0.0 0.00 0.00 0.00 78 1014.3
20260505175629 10 0 0.0 0.0 0.00 0.00 0.00 76 1014.3
20260505174628 11 0 0.0 0.0 0.00 0.00 0.00 76 1014.3
20260505172626 11 0 0.0 0.0 0.00 0.00 0.00 77 1014.2
20260505171627 11 0 0.0 0.0 0.00 0.00 0.00 76 1014.3
20260505170625 11 0 0.0 0.0 0.00 0.00 0.00 74 1014.4
20260505165625 11 0 0.0 0.0 0.00 0.00 0.00 73 1014.3
20260505164624 11 0 0.0 0.0 0.00 0.00 0.00 73 1014.4
20260505162624 11 0 0.0 0.0 0.00 0.00 0.00 73 1014.4
20260505161623 11 0 0.0 0.0 0.00 0.00 0.00 72 1014.4
20260505160622 12 0 0.0 0.0 0.00 0.00 0.00 71 1014.5
20260505152621 12 0 0.0 0.0 0.00 0.00 0.00 69 1014.6
20260505150618 13 0 0.0 0.0 0.00 0.00 0.00 66 1014.6
20260505140615 12 0 0.0 0.0 0.00 0.00 0.00 66 1014.7
20260505124611 15 0 0.0 0.0 0.00 0.00 0.00 58 1014.6
20260505123609 13 0 0.0 0.0 0.00 0.00 0.00 57 1014.8
20260505122610 13 0 0.0 0.0 0.00 0.00 0.00 57 1014.8
20260505121609 13 0 0.0 0.0 0.00 0.00 0.00 57 1014.9
20260505120607 13 0 0.0 0.0 0.00 0.00 0.00 60 1015.0
20260505115606 12 0 0.0 0.0 0.00 0.00 0.00 59 1015.0
20260505114607 13 0 0.0 0.0 0.00 0.00 0.00 60 1015.0
20260505113607 13 0 0.0 0.0 0.00 0.00 0.00 63 1015.0
20260505112607 13 0 0.0 0.0 0.00 0.00 0.00 62 1015.1
20260505111604 13 0 0.0 0.0 0.00 0.00 0.00 63 1015.1
20260505101603 12 0 0.0 0.0 0.00 0.00 0.00 65 1015.3
20260505100601 13 0 0.0 0.0 0.00 0.00 0.00 63 1015.2
20260505094601 13 0 0.0 0.0 0.00 0.00 0.00 60 1015.1
20260505093600 14 0 0.0 0.0 0.00 0.00 0.00 60 1015.1
20260505092558 13 0 0.0 0.0 0.00 0.00 0.00 60 1015.2
20260505091557 13 0 0.0 0.0 0.00 0.00 0.00 59 1015.3
20260505090557 14 0 0.0 0.0 0.00 0.00 0.00 58 1015.3
20260505085559 13 0 0.0 0.0 0.00 0.00 0.00 63 1015.3
20260505084557 13 0 0.0 0.0 0.00 0.00 0.00 59 1015.3
20260505082555 14 0 0.0 0.0 0.00 0.00 0.00 60 1015.4
20260505081555 14 0 0.0 0.0 0.00 0.00 0.00 64 1015.3
20260505075555 13 0 0.0 0.0 0.00 0.00 0.00 68 1015.4
20260505073554 12 0 0.0 0.0 0.00 0.00 0.00 78 1015.4
20260505072551 11 0 0.0 0.0 0.00 0.00 0.00 78 1015.5
20260505071550 11 0 0.0 0.0 0.00 0.00 0.00 88 1015.5
20260505070551 9 0 0.0 0.0 0.00 0.00 0.00 92 1015.5
20260505065549 8 0 0.0 0.0 0.00 0.00 0.00 96 1015.5
20260505064548 7 0 0.0 0.0 0.00 0.00 0.00 96 1015.6
20260505063548 7 0 0.0 0.0 0.00 0.00 0.00 96 1015.7
20260505062547 7 0 0.0 0.0 0.00 0.00 0.00 96 1015.6
20260505061547 8 0 0.0 0.0 0.00 0.00 0.00 96 1015.5
20260505055546 8 0 0.0 0.0 0.00 0.00 0.00 97 1015.4
20260505054545 8 0 0.0 0.0 0.00 0.00 0.00 96 1015.4
20260505053545 8 0 0.0 0.0 0.00 0.00 0.00 96 1015.4
20260505051544 8 0 0.0 0.0 0.00 0.00 0.00 97 1015.1
20260505050544 8 0 0.0 0.0 0.00 0.00 0.00 97 1015.2
20260505041540 8 0 0.0 0.0 0.00 0.00 0.00 97 1015.0
20260505040541 8 0 0.0 0.0 0.00 0.00 0.00 96 1015.0
20260504224543 9 0 0.0 0.0 0.00 0.00 0.00 94 1015.6
20260504223543 8 0 0.0 0.0 0.00 0.00 0.00 94 1015.6
20260504222542 8 0 0.0 0.0 0.00 0.00 0.00 93 1015.6
20260504221541 9 0 0.0 0.0 0.00 0.00 0.00 93 1015.6
20260504220541 9 0 0.0 0.0 0.00 0.00 0.00 93 1015.7
20260504215645 9 0 0.0 0.0 0.00 0.00 0.00 93 1015.7